Flag for Egypt Weather past 2 weeks in Al Jizah, Egypt

Now
77 °F

Fog.


Feels Like: 78 °F
Forecast: 75 / 100 °F
Wind: 5 mph from North

Location: Cairo Airport

Current Time: Jul 23, 2014 at 7:52:10 AM

Latest Report: Jul 23, 2014 at 7:00 AM


Visibility: 1 mi

Pressure: 29.83 "Hg

Humidity: 83%

Dew point: 72 °F

Location of Al JizahLocation

Historic Weather in Al Jizah — Graph

°F

Al Jizah temperature yesterday

Maximum temperature yesterday: 93 °F (at 4:00 PM)
Minimum temperature yesterday: 77 °F (at 1:00 AM)
Average temperature yesterday: 84 °F

Past Weeks' High & Low Weather Summary

 TemperatureHumidityPressure
High102 °F (Jul 12, 1:00 PM)94% (Jul 11, 5:30 AM)29.95 "Hg (Jul 11, 5:30 AM)
Low73 °F (Jul 8, 6:00 AM)11% (Jul 12, 11:00 AM)29.74 "Hg (Jul 9, 4:00 PM)
Average84 °F55%29.83 "Hg
* Reported Jul 8 6:00 AM — Jul 23 6:30 AM, Al Jizah, Weather by CustomWeather, © 2014

Note: Actual official high and low records may vary slightly from our data, if they occured in-between our weather recording intervals... More about our weather records

Advertising

Al Jizah weather history for previous 24 hours

 ConditionsComfort  
Time TempWeatherWind HumidityBarometerVisibility
6:30 AM
Jul 23
75 °FFog.6 mph89%29.83 "Hg1 mi
6:00 AM75 °FFog.6 mph89%29.83 "Hg1 mi
5:30 AM75 °FFog.5 mph83%29.83 "Hg1 mi
5:00 AM75 °FFog.3 mph89%29.83 "Hg2 mi
4:30 AM75 °FClear.6 mph89%29.83 "Hg4 mi
4:00 AM77 °FClear.5 mph83%29.83 "Hg4 mi
3:30 AM77 °FClear.3 mph79%29.80 "Hg10 mi
3:00 AM77 °FClear.3 mph79%29.80 "Hg10 mi
2:30 AM77 °FClear.3 mph79%29.80 "Hg10 mi
2:00 AM77 °FClear.3 mph79%29.80 "Hg10 mi
1:00 AM79 °FClear.7 mph74%29.80 "Hg10 mi
7:00 PM
Jul 22
88 °FClear.9 mph46%29.77 "Hg10 mi
6:30 PM90 °FSunny.8 mph41%29.77 "Hg10 mi
6:00 PM90 °FSunny.8 mph41%29.77 "Hg10 mi
5:30 PM91 °FSunny.8 mph38%29.77 "Hg10 mi
5:00 PM91 °FSunny.8 mph38%29.77 "Hg10 mi
4:30 PM93 °FSunny.9 mph36%29.77 "Hg10 mi
4:00 PM93 °FSunny.5 mph36%29.77 "Hg10 mi
3:30 PM91 °FSunny.8 mph38%29.77 "Hg10 mi
3:00 PM91 °FSunny.8 mph38%29.77 "Hg10 mi
2:30 PM91 °FSunny.8 mph32%29.77 "Hg10 mi
2:00 PM91 °FSunny.5 mph38%29.77 "Hg10 mi
1:30 PM90 °FSunny.8 mph38%29.77 "Hg10 mi
1:00 PM90 °FSunny.8 mph41%29.80 "Hg10 mi
12:30 PM90 °FSunny.6 mph41%29.80 "Hg10 mi
12:00 PM88 °FSunny.7 mph46%29.80 "Hg10 mi
11:30 AM88 °FSunny.2 mph46%29.80 "Hg10 mi
11:00 AM86 °FSunny.No wind52%29.80 "Hg10 mi
10:30 AM84 °FSunny.2 mph55%29.83 "Hg10 mi
10:00 AM84 °FClear.2 mph55%29.83 "Hg4 mi
9:30 AM82 °FClear.No wind62%29.83 "Hg4 mi
9:00 AM82 °FClear.2 mph62%29.83 "Hg4 mi
8:30 AM79 °FClear.No wind70%29.83 "Hg4 mi
8:00 AM79 °FClear.5 mph70%29.83 "Hg4 mi
7:30 AM79 °FClear.No wind70%29.80 "Hg4 mi
7:00 AM77 °FClear.3 mph74%29.80 "Hg4 mi
Weather by CustomWeather, © 2014

See weather overviewHow to use our weather pages